GW3498 Weather Reports


Display with metric or nautical units.
time (UTC)temp
F
wind
direction
speed
MPH
gust
MPH
rain 1hr
in
rain 24hr
in
rain mn
in
humidity
%
barometer
mb
20260902071532 73 167 0.0 1.0 0.00 0.00 0.00 63 1018.9
20260902070527 73 0.0 0.0 0.00 0.00 0.00 65 1019.0
20260902065521 73 0.0 0.0 0.00 0.00 0.00 64 1018.8
20260902064536 73 0.0 0.0 0.00 0.00 0.00 63 1018.7
20260902063530 73 0.0 0.0 0.00 0.00 0.00 62 1018.7
20260902062524 73 190 0.0 1.0 0.00 0.00 0.00 63 1018.5
20260902061520 73 0.0 0.0 0.00 0.00 0.00 61 1018.5
20260902060534 72 0.0 0.0 0.00 0.00 0.00 58 1018.5
20260902055549 73 182 0.0 1.0 0.00 0.00 0.00 60 1018.4
20260902054524 73 0.0 0.0 0.00 0.00 0.00 56 1018.4
20260902053518 73 36 0.0 1.0 0.00 0.00 0.00 55 1018.5
20260902052533 72 0.0 0.0 0.00 0.00 0.00 54 1018.5
20260902051528 71 34 0.0 1.0 0.00 0.00 0.00 55 1018.4
20260902050522 71 0.0 0.0 0.00 0.00 0.00 55 1018.5
20260902045517 71 21 0.0 1.0 0.00 0.00 0.00 56 1018.5
20260902044532 71 21 0.0 1.0 0.00 0.00 0.00 57 1018.6
20260902043526 70 42 0.0 1.0 0.00 0.00 0.00 55 1018.6
20260902042521 71 0.0 0.0 0.00 0.00 0.00 55 1018.5
20260902041535 72 54 0.0 1.0 0.00 0.00 0.00 52 1018.3
20260902040530 71 0.0 0.0 0.00 0.00 0.00 52 1018.3
20260902035544 71 0.0 0.0 0.00 0.00 0.00 54 1018.2
20260902034518 72 0.0 0.0 0.00 0.00 0.00 53 1018.1
20260902033533 73 56 0.0 1.0 0.00 0.00 0.00 50 1018.1
20260902032528 72 0.0 0.0 0.00 0.00 0.00 57 1018.1
20260902031521 72 37 0.0 1.0 0.00 0.00 0.00 58 1018.2
20260902030516 72 0.0 0.0 0.00 0.00 0.00 54 1018.2
20260902025531 74 31 1.0 2.0 0.00 0.00 0.00 51 1018.1
20260902024525 73 27 0.0 1.0 0.00 0.00 0.00 55 1018.2
20260902023519 74 45 0.0 1.0 0.00 0.00 0.00 56 1018.0
20260902022534 74 35 1.0 2.0 0.00 0.00 0.00 54 1018.0
20260902021528 73 32 0.0 1.0 0.00 0.00 0.00 52 1018.0
20260902020524 72 355 0.0 1.0 0.00 0.00 0.00 49 1018.0
20260902015539 73 0.0 0.0 0.00 0.00 0.00 47 1018.0
20260902014534 73 63 0.0 1.0 0.00 0.00 0.00 46 1018.0
20260902013527 73 67 0.0 1.0 0.00 0.00 0.00 44 1018.0
20260902012522 73 0.0 0.0 0.00 0.00 0.00 46 1018.1
20260902011517 73 30 0.0 1.0 0.00 0.00 0.00 46 1018.0
20260902010533 73 0.0 0.0 0.00 0.00 0.00 47 1018.1
20260902005546 75 32 0.0 2.0 0.00 0.00 0.00 48 1018.2
20260902004520 73 61 0.0 1.0 0.00 0.00 0.00 50 1018.3
20260902003535 73 57 0.0 1.0 0.00 0.00 0.00 51 1018.3
20260902002530 73 53 0.0 1.0 0.00 0.00 0.00 57 1018.1
20260902001523 74 38 0.0 1.0 0.00 0.00 0.00 57 1018.2
20260902000517 74 0.0 0.0 0.00 0.00 0.00 57 1018.4
20260901235532 74 29 0.0 1.0 0.00 0.00 0.00 57 1018.4
20260901234527 75 53 1.0 2.0 0.00 0.00 0.00 57 1018.5
20260901233523 74 44 0.0 1.0 0.00 0.00 0.00 54 1018.5
20260901232517 75 53 0.0 1.0 0.00 0.00 0.00 50 1018.4
20260901231531 75 38 0.0 1.0 0.00 0.00 0.00 53 1018.5
20260901230525 74 49 0.0 1.0 0.00 0.00 0.00 56 1018.4
20260901225522 74 68 0.0 1.0 0.00 0.00 0.00 57 1018.4
20260901224535 74 0.0 0.0 0.00 0.00 0.00 57 1018.4
20260901223549 74 46 0.0 1.0 0.00 0.00 0.00 61 1018.4
20260901222523 75 0.0 0.0 0.00 0.00 0.00 62 1018.6
20260901221518 75 45 0.0 1.0 0.00 0.00 0.00 61 1018.5
20260901220533 75 47 0.0 1.0 0.00 0.00 0.00 61 1018.6
20260901215528 74 9 0.0 1.0 0.00 0.00 0.00 63 1018.6
20260901214521 75 18 0.0 1.0 0.00 0.00 0.00 64 1018.6
20260901213555 75 0.0 0.0 0.00 0.00 0.00 65 1018.6
20260901212530 75 0.0 0.0 0.00 0.00 0.00 65 1018.6
20260901211525 76 0.0 0.0 0.00 0.00 0.00 64 1018.7
20260901210518 77 0.0 0.0 0.00 0.00 0.00 64 1018.6
20260901205534 77 40 0.0 1.0 0.00 0.00 0.00 63 1018.7
20260901204530 78 30 0.0 1.0 0.00 0.00 0.00 62 1018.7
20260901203523 78 37 0.0 2.0 0.00 0.00 0.00 61 1018.6
20260901202542 78 27 0.0 1.0 0.00 0.00 0.00 60 1018.6
20260901201535 78 5 1.0 3.0 0.00 0.00 0.00 60 1018.6
20260901200550 77 45 0.0 1.0 0.00 0.00 0.00 62 1018.6
20260901195527 78 0.0 0.0 0.00 0.00 0.00 60 1018.6
20260901194520 78 289 1.0 2.0 0.00 0.00 0.00 58 1018.5
20260901193556 79 0.0 0.0 0.00 0.00 0.00 57 1018.5
20260901192531 79 5 0.0 2.0 0.00 0.00 0.00 56 1018.4
20260901191526 80 360 2.0 4.0 0.00 0.00 0.00 56 1018.3
20260901190542 80 17 1.0 2.0 0.00 0.00 0.00 55 1018.3
20260901185517 80 8 2.0 4.0 0.00 0.00 0.00 54 1018.2
20260901184531 80 14 2.0 4.0 0.00 0.00 0.00 53 1018.1
20260901183527 81 17 1.0 2.0 0.00 0.00 0.00 53 1018.1
20260901182522 81 12 1.0 2.0 0.00 0.00 0.00 52 1018.0
20260901181517 81 357 2.0 6.0 0.00 0.00 0.00 51 1018.0
20260901180532 82 8 2.0 6.0 0.00 0.00 0.00 50 1018.0
20260901175527 82 353 1.0 6.0 0.00 0.00 0.00 49 1017.9
20260901174521 82 45 1.0 3.0 0.00 0.00 0.00 49 1017.8
20260901173516 83 16 1.0 2.0 0.00 0.00 0.00 48 1017.7
20260901172531 83 20 1.0 3.0 0.00 0.00 0.00 48 1017.8
20260901171525 84 70 1.0 3.0 0.00 0.00 0.00 47 1017.9
20260901170519 84 10 2.0 6.0 0.00 0.00 0.00 46 1017.8
20260901165534 85 227 1.0 3.0 0.00 0.00 0.00 44 1017.9
20260901164530 85 324 2.0 4.0 0.00 0.00 0.00 44 1017.8
20260901163523 86 343 2.0 8.0 0.00 0.00 0.00 43 1017.9
20260901162517 87 343 2.0 6.0 0.00 0.00 0.00 43 1017.9
20260901161532 88 339 2.0 4.0 0.00 0.00 0.00 43 1017.8
20260901160526 89 182 2.0 7.0 0.00 0.00 0.00 42 1017.8
20260901155521 89 20 3.0 13.0 0.00 0.00 0.00 42 1017.7
20260901154516 89 20 3.0 6.0 0.00 0.00 0.00 41 1017.6
20260901153532 90 342 2.0 10.0 0.00 0.00 0.00 40 1017.5
20260901152525 90 225 2.0 7.0 0.00 0.00 0.00 39 1017.3
20260901151522 91 285 2.0 7.0 0.00 0.00 0.00 39 1017.4
20260901150535 91 149 3.0 9.0 0.00 0.00 0.00 39 1017.3
20260901145529 91 266 2.0 7.0 0.00 0.00 0.00 38 1017.2
20260901144525 92 282 2.0 4.0 0.00 0.00 0.00 38 1017.4
20260901143519 93 254 2.0 7.0 0.00 0.00 0.00 30 1017.1
20260901142535 94 304 2.0 4.0 0.00 0.00 0.00 29 1017.2
20260901141528 93 247 2.0 4.0 0.00 0.00 0.00 29 1017.2
20260901140544 94 198 3.0 7.0 0.00 0.00 0.00 29 1017.1
20260901135518 93 292 2.0 3.0 0.00 0.00 0.00 30 1017.3
20260901134552 93 308 2.0 6.0 0.00 0.00 0.00 29 1017.3
20260901133527 94 243 2.0 7.0 0.00 0.00 0.00 30 1017.3
20260901132520 94 237 2.0 6.0 0.00 0.00 0.00 29 1017.5
20260901131535 93 103 2.0 7.0 0.00 0.00 0.00 29 1017.5
20260901130550 93 279 2.0 7.0 0.00 0.00 0.00 30 1017.5
20260901125526 94 224 2.0 7.0 0.00 0.00 0.00 27 1017.5
20260901124521 93 257 2.0 6.0 0.00 0.00 0.00 28 1017.7
20260901123535 93 219 2.0 4.0 0.00 0.00 0.00 27 1017.7
20260901122530 93 8 2.0 4.0 0.00 0.00 0.00 28 1017.6
20260901121524 94 220 2.0 4.0 0.00 0.00 0.00 27 1017.7
20260901120518 93 278 2.0 6.0 0.00 0.00 0.00 25 1017.9
20260901115533 93 218 1.0 6.0 0.00 0.00 0.00 29 1017.8
20260901114528 94 262 2.0 4.0 0.00 0.00 0.00 33 1017.8
20260901113525 93 270 2.0 3.0 0.00 0.00 0.00 31 1017.9
20260901112540 92 208 1.0 6.0 0.00 0.00 0.00 33 1017.8
20260901111534 91 196 2.0 6.0 0.00 0.00 0.00 34 1017.8
20260901110549 91 241 2.0 6.0 0.00 0.00 0.00 35 1017.8
20260901105523 92 251 1.0 2.0 0.00 0.00 0.00 36 1017.9
20260901104518 90 214 1.0 4.0 0.00 0.00 0.00 38 1017.9
20260901103533 90 249 2.0 6.0 0.00 0.00 0.00 38 1018.0
20260901102527 90 329 2.0 6.0 0.00 0.00 0.00 39 1018.0
20260901101522 90 201 2.0 4.0 0.00 0.00 0.00 40 1018.1
20260901100518 90 240 1.0 3.0 0.00 0.00 0.00 42 1018.1
20260901095531 89 225 1.0 6.0 0.00 0.00 0.00 42 1018.1
20260901094525 89 19 2.0 4.0 0.00 0.00 0.00 41 1018.2
20260901093540 90 261 1.0 3.0 0.00 0.00 0.00 41 1018.2
20260901092556 89 269 1.0 3.0 0.00 0.00 0.00 40 1018.1
20260901091549 88 355 2.0 6.0 0.00 0.00 0.00 39 1018.1
20260901090546 88 34 1.0 4.0 0.00 0.00 0.00 40 1018.0
20260901085521 88 348 2.0 4.0 0.00 0.00 0.00 42 1018.0
20260901084535 87 13 2.0 6.0 0.00 0.00 0.00 43 1018.1
20260901083528 86 180 1.0 3.0 0.00 0.00 0.00 44 1018.0
20260901082524 85 198 1.0 3.0 0.00 0.00 0.00 45 1018.0
20260901081538 85 155 1.0 1.0 0.00 0.00 0.00 46 1017.9
20260901080533 85 220 0.0 2.0 0.00 0.00 0.00 47 1018.0
20260901075527 84 185 1.0 2.0 0.00 0.00 0.00 49 1017.8
20260901074522 83 176 1.0 2.0 0.00 0.00 0.00 50 1017.9
20260901073543 81 144 0.0 2.0 0.00 0.00 0.00 52 1017.8
20260901072534 78 176 0.0 1.0 0.00 0.00 0.00 58 1017.7